This is the latest recevied weather packets stored in our database for station/object KM5VY. If no packets are shown the sender has not sent any weather packets the latest 10 day(s).
| Time | Temp. | Humidity | Pressure | Rain* | Wind** | Luminosity | Snow |
|---|---|---|---|---|---|---|---|
| 1778212342 | 7.78° C | 30% | 1017.9 hPa | 0 mm | - | - | - |
| 1778211139 | 8.89° C | 29% | 1017.3 hPa | 0 mm | - | - | - |
| 1778210539 | 9.44° C | 29% | 1017.9 hPa | 0 mm | - | - | - |
| 1778209937 | 10° C | 29% | 1018.6 hPa | 0 mm | - | - | - |
| 1778209337 | 10.56° C | 28% | 1019.3 hPa | 0 mm | - | - | - |
| 1778208736 | 10.56° C | 28% | 1019.3 hPa | 0 mm | - | - | - |
| 1778208135 | 11.67° C | 27% | 1018.3 hPa | 0 mm | - | - | - |
| 1778207534 | 12.22° C | 27% | 1018.3 hPa | 0 mm | - | - | - |
| 1778206933 | 12.78° C | 26% | 1017.9 hPa | 0 mm | - | - | - |
| 1778206332 | 13.89° C | 25% | 1017.9 hPa | 0 mm | - | - | - |
| 1778205731 | 14.44° C | 24% | 1017.6 hPa | 0 mm | - | - | - |
| 1778205130 | 15° C | 24% | 1017.6 hPa | 0 mm | - | - | - |
| 1778204528 | 15.56° C | 22% | 1017.3 hPa | 0 mm | - | - | - |
| 1778203927 | 16.11° C | 21% | 1017.3 hPa | 0 mm | - | - | - |
| 1778203327 | 16.67° C | 20% | 1017.3 hPa | 0 mm | - | - | - |
| 1778202726 | 16.67° C | 20% | 1017.3 hPa | 0 mm | - | - | - |
| 1778202125 | 17.22° C | 20% | 1017.3 hPa | 0 mm | - | - | - |
| 1778201523 | 17.78° C | 20% | 1017.3 hPa | 0 mm | - | - | - |
| 1778200922 | 18.33° C | 19% | 1017.3 hPa | 0 mm | - | - | - |
| 1778200321 | 18.33° C | 19% | 1017.3 hPa | 0 mm | - | - | - |
| 1778199773 | 18.89° C | 18% | 1017.3 hPa | 0 mm | - | - | - |
| 1778199721 | 18.89° C | 18% | 1017.3 hPa | 0 mm | - | - | - |
| 1778199120 | 19.44° C | 18% | 1017.3 hPa | 0 mm | - | - | - |
| 1778198518 | 19.44° C | 18% | 1016.9 hPa | 0 mm | - | - | - |
| 1778197918 | 20° C | 18% | 1017.3 hPa | 0 mm | - | - | - |
* Rain latest hour (hover to see other rain measurements)
** Current wind speed in m/s (hover to see current wind gust speed)